<?xml version="1.0"?>
<gpx xmlns="http://www.topografix.com/GPX/1/1" xmlns:xsi="http://www.w3.org/2001/XMLSchema-instance" version="1.1" creator="GPX RubyGem 1.0.0 -- http://dougfales.github.io/gpx/" xsi:schemaLocation="http://www.topografix.com/GPX/1/1 http://www.topografix.com/GPX/1/1/gpx.xsd">
  <metadata>
    <name/>
    <time>2026-05-08T01:43:56+00:00</time>
    <bound minlat="90.0" minlon="180.0" maxlat="-90.0" maxlon="-180.0"/>
  </metadata>
  <trk>
    <name/>
    <trkseg>
      <trkpt lat="47.652182" lon="13.434107">
        <time>1970-01-01T00:00:00+00:00</time>
        <ele>1152.0</ele>
      </trkpt>
      <trkpt lat="47.651906" lon="13.433863">
        <time>1970-01-01T00:00:00+00:00</time>
        <ele>1152.0</ele>
      </trkpt>
      <trkpt lat="47.651734" lon="13.433749">
        <time>1970-01-01T00:00:00+00:00</time>
        <ele>1153.0</ele>
      </trkpt>
      <trkpt lat="47.651562" lon="13.433635">
        <time>1970-01-01T00:00:00+00:00</time>
        <ele>1155.0</ele>
      </trkpt>
      <trkpt lat="47.651522" lon="13.433609">
        <time>1970-01-01T00:00:00+00:00</time>
        <ele>1156.0</ele>
      </trkpt>
      <trkpt lat="47.651507" lon="13.433699">
        <time>1970-01-01T00:00:00+00:00</time>
        <ele>1156.0</ele>
      </trkpt>
      <trkpt lat="47.651509" lon="13.433921">
        <time>1970-01-01T00:00:00+00:00</time>
        <ele>1158.0</ele>
      </trkpt>
      <trkpt lat="47.651469" lon="13.434106">
        <time>1970-01-01T00:00:00+00:00</time>
        <ele>1160.0</ele>
      </trkpt>
      <trkpt lat="47.651464" lon="13.434245">
        <time>1970-01-01T00:00:00+00:00</time>
        <ele>1160.0</ele>
      </trkpt>
      <trkpt lat="47.65154" lon="13.434798">
        <time>1970-01-01T00:00:00+00:00</time>
        <ele>1157.0</ele>
      </trkpt>
      <trkpt lat="47.651515" lon="13.434975">
        <time>1970-01-01T00:00:00+00:00</time>
        <ele>1157.0</ele>
      </trkpt>
      <trkpt lat="47.651367" lon="13.435417">
        <time>1970-01-01T00:00:00+00:00</time>
        <ele>1161.0</ele>
      </trkpt>
      <trkpt lat="47.651319" lon="13.435676">
        <time>1970-01-01T00:00:00+00:00</time>
        <ele>1162.0</ele>
      </trkpt>
      <trkpt lat="47.651227" lon="13.435939">
        <time>1970-01-01T00:00:00+00:00</time>
        <ele>1161.0</ele>
      </trkpt>
      <trkpt lat="47.651153" lon="13.436045">
        <time>1970-01-01T00:00:00+00:00</time>
        <ele>1161.0</ele>
      </trkpt>
      <trkpt lat="47.65092" lon="13.436273">
        <time>1970-01-01T00:00:00+00:00</time>
        <ele>1162.0</ele>
      </trkpt>
      <trkpt lat="47.650707" lon="13.436533">
        <time>1970-01-01T00:00:00+00:00</time>
        <ele>1164.0</ele>
      </trkpt>
      <trkpt lat="47.650629" lon="13.436657">
        <time>1970-01-01T00:00:00+00:00</time>
        <ele>1165.0</ele>
      </trkpt>
      <trkpt lat="47.650548" lon="13.43686">
        <time>1970-01-01T00:00:00+00:00</time>
        <ele>1164.0</ele>
      </trkpt>
      <trkpt lat="47.650425" lon="13.437088">
        <time>1970-01-01T00:00:00+00:00</time>
        <ele>1162.0</ele>
      </trkpt>
      <trkpt lat="47.65032" lon="13.437223">
        <time>1970-01-01T00:00:00+00:00</time>
        <ele>1161.0</ele>
      </trkpt>
      <trkpt lat="47.649988" lon="13.437493">
        <time>1970-01-01T00:00:00+00:00</time>
        <ele>1165.0</ele>
      </trkpt>
      <trkpt lat="47.649744" lon="13.437788">
        <time>1970-01-01T00:00:00+00:00</time>
        <ele>1165.0</ele>
      </trkpt>
      <trkpt lat="47.649495" lon="13.437941">
        <time>1970-01-01T00:00:00+00:00</time>
        <ele>1168.0</ele>
      </trkpt>
      <trkpt lat="47.649392" lon="13.438089">
        <time>1970-01-01T00:00:00+00:00</time>
        <ele>1167.0</ele>
      </trkpt>
      <trkpt lat="47.649242" lon="13.43844">
        <time>1970-01-01T00:00:00+00:00</time>
        <ele>1162.0</ele>
      </trkpt>
      <trkpt lat="47.649164" lon="13.438531">
        <time>1970-01-01T00:00:00+00:00</time>
        <ele>1162.0</ele>
      </trkpt>
      <trkpt lat="47.648936" lon="13.438666">
        <time>1970-01-01T00:00:00+00:00</time>
        <ele>1162.0</ele>
      </trkpt>
      <trkpt lat="47.648884" lon="13.438735">
        <time>1970-01-01T00:00:00+00:00</time>
        <ele>1161.0</ele>
      </trkpt>
      <trkpt lat="47.648868" lon="13.43884">
        <time>1970-01-01T00:00:00+00:00</time>
        <ele>1161.0</ele>
      </trkpt>
      <trkpt lat="47.648904" lon="13.439288">
        <time>1970-01-01T00:00:00+00:00</time>
        <ele>1154.0</ele>
      </trkpt>
      <trkpt lat="47.64892" lon="13.439959">
        <time>1970-01-01T00:00:00+00:00</time>
        <ele>1146.0</ele>
      </trkpt>
      <trkpt lat="47.648896" lon="13.440069">
        <time>1970-01-01T00:00:00+00:00</time>
        <ele>1146.0</ele>
      </trkpt>
      <trkpt lat="47.648851" lon="13.44016">
        <time>1970-01-01T00:00:00+00:00</time>
        <ele>1146.0</ele>
      </trkpt>
      <trkpt lat="47.648754" lon="13.440236">
        <time>1970-01-01T00:00:00+00:00</time>
        <ele>1147.0</ele>
      </trkpt>
      <trkpt lat="47.648707" lon="13.440323">
        <time>1970-01-01T00:00:00+00:00</time>
        <ele>1148.0</ele>
      </trkpt>
      <trkpt lat="47.648685" lon="13.440516">
        <time>1970-01-01T00:00:00+00:00</time>
        <ele>1150.0</ele>
      </trkpt>
      <trkpt lat="47.648718" lon="13.440607">
        <time>1970-01-01T00:00:00+00:00</time>
        <ele>1151.0</ele>
      </trkpt>
      <trkpt lat="47.648791" lon="13.44071">
        <time>1970-01-01T00:00:00+00:00</time>
        <ele>1152.0</ele>
      </trkpt>
      <trkpt lat="47.649124" lon="13.441233">
        <time>1970-01-01T00:00:00+00:00</time>
        <ele>1156.0</ele>
      </trkpt>
      <trkpt lat="47.649287" lon="13.441523">
        <time>1970-01-01T00:00:00+00:00</time>
        <ele>1160.0</ele>
      </trkpt>
      <trkpt lat="47.649413" lon="13.441891">
        <time>1970-01-01T00:00:00+00:00</time>
        <ele>1164.0</ele>
      </trkpt>
      <trkpt lat="47.649429" lon="13.442">
        <time>1970-01-01T00:00:00+00:00</time>
        <ele>1165.0</ele>
      </trkpt>
      <trkpt lat="47.649428" lon="13.442178">
        <time>1970-01-01T00:00:00+00:00</time>
        <ele>1168.0</ele>
      </trkpt>
      <trkpt lat="47.649395" lon="13.442481">
        <time>1970-01-01T00:00:00+00:00</time>
        <ele>1174.0</ele>
      </trkpt>
      <trkpt lat="47.649393" lon="13.442878">
        <time>1970-01-01T00:00:00+00:00</time>
        <ele>1175.0</ele>
      </trkpt>
      <trkpt lat="47.649377" lon="13.443006">
        <time>1970-01-01T00:00:00+00:00</time>
        <ele>1175.0</ele>
      </trkpt>
      <trkpt lat="47.649207" lon="13.443403">
        <time>1970-01-01T00:00:00+00:00</time>
        <ele>1173.0</ele>
      </trkpt>
      <trkpt lat="47.649124" lon="13.443553">
        <time>1970-01-01T00:00:00+00:00</time>
        <ele>1173.0</ele>
      </trkpt>
      <trkpt lat="47.649021" lon="13.443704">
        <time>1970-01-01T00:00:00+00:00</time>
        <ele>1175.0</ele>
      </trkpt>
      <trkpt lat="47.648737" lon="13.443991">
        <time>1970-01-01T00:00:00+00:00</time>
        <ele>1175.0</ele>
      </trkpt>
      <trkpt lat="47.648676" lon="13.44402">
        <time>1970-01-01T00:00:00+00:00</time>
        <ele>1175.0</ele>
      </trkpt>
      <trkpt lat="47.648176" lon="13.444073">
        <time>1970-01-01T00:00:00+00:00</time>
        <ele>1186.0</ele>
      </trkpt>
      <trkpt lat="47.64811" lon="13.444105">
        <time>1970-01-01T00:00:00+00:00</time>
        <ele>1186.0</ele>
      </trkpt>
      <trkpt lat="47.64806" lon="13.444097">
        <time>1970-01-01T00:00:00+00:00</time>
        <ele>1188.0</ele>
      </trkpt>
      <trkpt lat="47.648031" lon="13.444059">
        <time>1970-01-01T00:00:00+00:00</time>
        <ele>1190.0</ele>
      </trkpt>
      <trkpt lat="47.647951" lon="13.444065">
        <time>1970-01-01T00:00:00+00:00</time>
        <ele>1193.0</ele>
      </trkpt>
      <trkpt lat="47.647777" lon="13.444189">
        <time>1970-01-01T00:00:00+00:00</time>
        <ele>1198.0</ele>
      </trkpt>
      <trkpt lat="47.647659" lon="13.444337">
        <time>1970-01-01T00:00:00+00:00</time>
        <ele>1202.0</ele>
      </trkpt>
      <trkpt lat="47.647196" lon="13.44443">
        <time>1970-01-01T00:00:00+00:00</time>
        <ele>1218.0</ele>
      </trkpt>
      <trkpt lat="47.647189" lon="13.444507">
        <time>1970-01-01T00:00:00+00:00</time>
        <ele>1218.0</ele>
      </trkpt>
      <trkpt lat="47.647211" lon="13.44457">
        <time>1970-01-01T00:00:00+00:00</time>
        <ele>1218.0</ele>
      </trkpt>
      <trkpt lat="47.647289" lon="13.444672">
        <time>1970-01-01T00:00:00+00:00</time>
        <ele>1218.0</ele>
      </trkpt>
      <trkpt lat="47.64738" lon="13.444853">
        <time>1970-01-01T00:00:00+00:00</time>
        <ele>1219.0</ele>
      </trkpt>
      <trkpt lat="47.64738" lon="13.444896">
        <time>1970-01-01T00:00:00+00:00</time>
        <ele>1219.0</ele>
      </trkpt>
      <trkpt lat="47.647418" lon="13.444996">
        <time>1970-01-01T00:00:00+00:00</time>
        <ele>1219.0</ele>
      </trkpt>
      <trkpt lat="47.647456" lon="13.445174">
        <time>1970-01-01T00:00:00+00:00</time>
        <ele>1220.0</ele>
      </trkpt>
      <trkpt lat="47.647462" lon="13.445262">
        <time>1970-01-01T00:00:00+00:00</time>
        <ele>1220.0</ele>
      </trkpt>
      <trkpt lat="47.647429" lon="13.445824">
        <time>1970-01-01T00:00:00+00:00</time>
        <ele>1220.0</ele>
      </trkpt>
      <trkpt lat="47.647211" lon="13.445897">
        <time>1970-01-01T00:00:00+00:00</time>
        <ele>1222.0</ele>
      </trkpt>
      <trkpt lat="47.64701" lon="13.445855">
        <time>1970-01-01T00:00:00+00:00</time>
        <ele>1220.0</ele>
      </trkpt>
      <trkpt lat="47.646853" lon="13.445741">
        <time>1970-01-01T00:00:00+00:00</time>
        <ele>1219.0</ele>
      </trkpt>
      <trkpt lat="47.646812" lon="13.445784">
        <time>1970-01-01T00:00:00+00:00</time>
        <ele>1218.0</ele>
      </trkpt>
      <trkpt lat="47.646595" lon="13.445768">
        <time>1970-01-01T00:00:00+00:00</time>
        <ele>1217.0</ele>
      </trkpt>
      <trkpt lat="47.646578" lon="13.445729">
        <time>1970-01-01T00:00:00+00:00</time>
        <ele>1218.0</ele>
      </trkpt>
      <trkpt lat="47.646443" lon="13.445738">
        <time>1970-01-01T00:00:00+00:00</time>
        <ele>1218.0</ele>
      </trkpt>
      <trkpt lat="47.646284" lon="13.445643">
        <time>1970-01-01T00:00:00+00:00</time>
        <ele>1218.0</ele>
      </trkpt>
      <trkpt lat="47.646199" lon="13.445724">
        <time>1970-01-01T00:00:00+00:00</time>
        <ele>1218.0</ele>
      </trkpt>
      <trkpt lat="47.646115" lon="13.445847">
        <time>1970-01-01T00:00:00+00:00</time>
        <ele>1219.0</ele>
      </trkpt>
      <trkpt lat="47.646155" lon="13.44618">
        <time>1970-01-01T00:00:00+00:00</time>
        <ele>1217.0</ele>
      </trkpt>
      <trkpt lat="47.646184" lon="13.446294">
        <time>1970-01-01T00:00:00+00:00</time>
        <ele>1216.0</ele>
      </trkpt>
      <trkpt lat="47.646161" lon="13.446459">
        <time>1970-01-01T00:00:00+00:00</time>
        <ele>1215.0</ele>
      </trkpt>
      <trkpt lat="47.645943" lon="13.446805">
        <time>1970-01-01T00:00:00+00:00</time>
        <ele>1218.0</ele>
      </trkpt>
      <trkpt lat="47.64584" lon="13.447124">
        <time>1970-01-01T00:00:00+00:00</time>
        <ele>1217.0</ele>
      </trkpt>
      <trkpt lat="47.645723" lon="13.447303">
        <time>1970-01-01T00:00:00+00:00</time>
        <ele>1218.0</ele>
      </trkpt>
      <trkpt lat="47.645652" lon="13.447365">
        <time>1970-01-01T00:00:00+00:00</time>
        <ele>1219.0</ele>
      </trkpt>
      <trkpt lat="47.64559" lon="13.44752">
        <time>1970-01-01T00:00:00+00:00</time>
        <ele>1218.0</ele>
      </trkpt>
      <trkpt lat="47.645521" lon="13.44785">
        <time>1970-01-01T00:00:00+00:00</time>
        <ele>1215.0</ele>
      </trkpt>
      <trkpt lat="47.645413" lon="13.44815">
        <time>1970-01-01T00:00:00+00:00</time>
        <ele>1217.0</ele>
      </trkpt>
      <trkpt lat="47.64538" lon="13.44829">
        <time>1970-01-01T00:00:00+00:00</time>
        <ele>1218.0</ele>
      </trkpt>
      <trkpt lat="47.645347" lon="13.448561">
        <time>1970-01-01T00:00:00+00:00</time>
        <ele>1219.0</ele>
      </trkpt>
      <trkpt lat="47.645254" lon="13.448686">
        <time>1970-01-01T00:00:00+00:00</time>
        <ele>1225.0</ele>
      </trkpt>
      <trkpt lat="47.645207" lon="13.448813">
        <time>1970-01-01T00:00:00+00:00</time>
        <ele>1228.0</ele>
      </trkpt>
      <trkpt lat="47.645183" lon="13.448949">
        <time>1970-01-01T00:00:00+00:00</time>
        <ele>1230.0</ele>
      </trkpt>
      <trkpt lat="47.645207" lon="13.449078">
        <time>1970-01-01T00:00:00+00:00</time>
        <ele>1230.0</ele>
      </trkpt>
      <trkpt lat="47.645283" lon="13.44926">
        <time>1970-01-01T00:00:00+00:00</time>
        <ele>1227.0</ele>
      </trkpt>
      <trkpt lat="47.64534" lon="13.449465">
        <time>1970-01-01T00:00:00+00:00</time>
        <ele>1226.0</ele>
      </trkpt>
      <trkpt lat="47.64534" lon="13.449465">
        <time>1970-01-01T00:00:00+00:00</time>
        <ele>1226.0</ele>
      </trkpt>
      <trkpt lat="47.645283" lon="13.44926">
        <time>1970-01-01T00:00:00+00:00</time>
        <ele>1227.0</ele>
      </trkpt>
      <trkpt lat="47.645207" lon="13.449078">
        <time>1970-01-01T00:00:00+00:00</time>
        <ele>1230.0</ele>
      </trkpt>
      <trkpt lat="47.645183" lon="13.448949">
        <time>1970-01-01T00:00:00+00:00</time>
        <ele>1230.0</ele>
      </trkpt>
      <trkpt lat="47.645207" lon="13.448813">
        <time>1970-01-01T00:00:00+00:00</time>
        <ele>1228.0</ele>
      </trkpt>
      <trkpt lat="47.645254" lon="13.448686">
        <time>1970-01-01T00:00:00+00:00</time>
        <ele>1225.0</ele>
      </trkpt>
      <trkpt lat="47.645347" lon="13.448561">
        <time>1970-01-01T00:00:00+00:00</time>
        <ele>1219.0</ele>
      </trkpt>
      <trkpt lat="47.64538" lon="13.44829">
        <time>1970-01-01T00:00:00+00:00</time>
        <ele>1218.0</ele>
      </trkpt>
      <trkpt lat="47.645413" lon="13.44815">
        <time>1970-01-01T00:00:00+00:00</time>
        <ele>1217.0</ele>
      </trkpt>
      <trkpt lat="47.645521" lon="13.44785">
        <time>1970-01-01T00:00:00+00:00</time>
        <ele>1215.0</ele>
      </trkpt>
      <trkpt lat="47.64559" lon="13.44752">
        <time>1970-01-01T00:00:00+00:00</time>
        <ele>1218.0</ele>
      </trkpt>
      <trkpt lat="47.645652" lon="13.447365">
        <time>1970-01-01T00:00:00+00:00</time>
        <ele>1219.0</ele>
      </trkpt>
      <trkpt lat="47.645723" lon="13.447303">
        <time>1970-01-01T00:00:00+00:00</time>
        <ele>1218.0</ele>
      </trkpt>
      <trkpt lat="47.64584" lon="13.447124">
        <time>1970-01-01T00:00:00+00:00</time>
        <ele>1217.0</ele>
      </trkpt>
      <trkpt lat="47.645943" lon="13.446805">
        <time>1970-01-01T00:00:00+00:00</time>
        <ele>1218.0</ele>
      </trkpt>
      <trkpt lat="47.646161" lon="13.446459">
        <time>1970-01-01T00:00:00+00:00</time>
        <ele>1215.0</ele>
      </trkpt>
      <trkpt lat="47.646184" lon="13.446294">
        <time>1970-01-01T00:00:00+00:00</time>
        <ele>1216.0</ele>
      </trkpt>
      <trkpt lat="47.646155" lon="13.44618">
        <time>1970-01-01T00:00:00+00:00</time>
        <ele>1217.0</ele>
      </trkpt>
      <trkpt lat="47.646115" lon="13.445847">
        <time>1970-01-01T00:00:00+00:00</time>
        <ele>1219.0</ele>
      </trkpt>
      <trkpt lat="47.646199" lon="13.445724">
        <time>1970-01-01T00:00:00+00:00</time>
        <ele>1218.0</ele>
      </trkpt>
      <trkpt lat="47.646284" lon="13.445643">
        <time>1970-01-01T00:00:00+00:00</time>
        <ele>1218.0</ele>
      </trkpt>
      <trkpt lat="47.646443" lon="13.445738">
        <time>1970-01-01T00:00:00+00:00</time>
        <ele>1218.0</ele>
      </trkpt>
      <trkpt lat="47.646578" lon="13.445729">
        <time>1970-01-01T00:00:00+00:00</time>
        <ele>1218.0</ele>
      </trkpt>
      <trkpt lat="47.646595" lon="13.445768">
        <time>1970-01-01T00:00:00+00:00</time>
        <ele>1217.0</ele>
      </trkpt>
      <trkpt lat="47.646812" lon="13.445784">
        <time>1970-01-01T00:00:00+00:00</time>
        <ele>1218.0</ele>
      </trkpt>
      <trkpt lat="47.646853" lon="13.445741">
        <time>1970-01-01T00:00:00+00:00</time>
        <ele>1219.0</ele>
      </trkpt>
      <trkpt lat="47.64701" lon="13.445855">
        <time>1970-01-01T00:00:00+00:00</time>
        <ele>1220.0</ele>
      </trkpt>
      <trkpt lat="47.647211" lon="13.445897">
        <time>1970-01-01T00:00:00+00:00</time>
        <ele>1222.0</ele>
      </trkpt>
      <trkpt lat="47.647429" lon="13.445824">
        <time>1970-01-01T00:00:00+00:00</time>
        <ele>1220.0</ele>
      </trkpt>
      <trkpt lat="47.647462" lon="13.445262">
        <time>1970-01-01T00:00:00+00:00</time>
        <ele>1220.0</ele>
      </trkpt>
      <trkpt lat="47.647456" lon="13.445174">
        <time>1970-01-01T00:00:00+00:00</time>
        <ele>1220.0</ele>
      </trkpt>
      <trkpt lat="47.647418" lon="13.444996">
        <time>1970-01-01T00:00:00+00:00</time>
        <ele>1219.0</ele>
      </trkpt>
      <trkpt lat="47.64738" lon="13.444896">
        <time>1970-01-01T00:00:00+00:00</time>
        <ele>1219.0</ele>
      </trkpt>
      <trkpt lat="47.64738" lon="13.444853">
        <time>1970-01-01T00:00:00+00:00</time>
        <ele>1219.0</ele>
      </trkpt>
      <trkpt lat="47.647289" lon="13.444672">
        <time>1970-01-01T00:00:00+00:00</time>
        <ele>1218.0</ele>
      </trkpt>
      <trkpt lat="47.647211" lon="13.44457">
        <time>1970-01-01T00:00:00+00:00</time>
        <ele>1218.0</ele>
      </trkpt>
      <trkpt lat="47.647189" lon="13.444507">
        <time>1970-01-01T00:00:00+00:00</time>
        <ele>1218.0</ele>
      </trkpt>
      <trkpt lat="47.647196" lon="13.44443">
        <time>1970-01-01T00:00:00+00:00</time>
        <ele>1218.0</ele>
      </trkpt>
      <trkpt lat="47.647659" lon="13.444337">
        <time>1970-01-01T00:00:00+00:00</time>
        <ele>1202.0</ele>
      </trkpt>
      <trkpt lat="47.647777" lon="13.444189">
        <time>1970-01-01T00:00:00+00:00</time>
        <ele>1198.0</ele>
      </trkpt>
      <trkpt lat="47.647951" lon="13.444065">
        <time>1970-01-01T00:00:00+00:00</time>
        <ele>1193.0</ele>
      </trkpt>
      <trkpt lat="47.648031" lon="13.444059">
        <time>1970-01-01T00:00:00+00:00</time>
        <ele>1190.0</ele>
      </trkpt>
      <trkpt lat="47.64806" lon="13.444097">
        <time>1970-01-01T00:00:00+00:00</time>
        <ele>1188.0</ele>
      </trkpt>
      <trkpt lat="47.64811" lon="13.444105">
        <time>1970-01-01T00:00:00+00:00</time>
        <ele>1186.0</ele>
      </trkpt>
      <trkpt lat="47.648176" lon="13.444073">
        <time>1970-01-01T00:00:00+00:00</time>
        <ele>1186.0</ele>
      </trkpt>
      <trkpt lat="47.648676" lon="13.44402">
        <time>1970-01-01T00:00:00+00:00</time>
        <ele>1175.0</ele>
      </trkpt>
      <trkpt lat="47.648737" lon="13.443991">
        <time>1970-01-01T00:00:00+00:00</time>
        <ele>1175.0</ele>
      </trkpt>
      <trkpt lat="47.649021" lon="13.443704">
        <time>1970-01-01T00:00:00+00:00</time>
        <ele>1175.0</ele>
      </trkpt>
      <trkpt lat="47.649124" lon="13.443553">
        <time>1970-01-01T00:00:00+00:00</time>
        <ele>1173.0</ele>
      </trkpt>
      <trkpt lat="47.649207" lon="13.443403">
        <time>1970-01-01T00:00:00+00:00</time>
        <ele>1173.0</ele>
      </trkpt>
      <trkpt lat="47.649377" lon="13.443006">
        <time>1970-01-01T00:00:00+00:00</time>
        <ele>1175.0</ele>
      </trkpt>
      <trkpt lat="47.649393" lon="13.442878">
        <time>1970-01-01T00:00:00+00:00</time>
        <ele>1175.0</ele>
      </trkpt>
      <trkpt lat="47.649395" lon="13.442481">
        <time>1970-01-01T00:00:00+00:00</time>
        <ele>1174.0</ele>
      </trkpt>
      <trkpt lat="47.649428" lon="13.442178">
        <time>1970-01-01T00:00:00+00:00</time>
        <ele>1168.0</ele>
      </trkpt>
      <trkpt lat="47.649429" lon="13.442">
        <time>1970-01-01T00:00:00+00:00</time>
        <ele>1165.0</ele>
      </trkpt>
      <trkpt lat="47.649413" lon="13.441891">
        <time>1970-01-01T00:00:00+00:00</time>
        <ele>1164.0</ele>
      </trkpt>
      <trkpt lat="47.649287" lon="13.441523">
        <time>1970-01-01T00:00:00+00:00</time>
        <ele>1160.0</ele>
      </trkpt>
      <trkpt lat="47.649124" lon="13.441233">
        <time>1970-01-01T00:00:00+00:00</time>
        <ele>1156.0</ele>
      </trkpt>
      <trkpt lat="47.648791" lon="13.44071">
        <time>1970-01-01T00:00:00+00:00</time>
        <ele>1152.0</ele>
      </trkpt>
      <trkpt lat="47.648718" lon="13.440607">
        <time>1970-01-01T00:00:00+00:00</time>
        <ele>1151.0</ele>
      </trkpt>
      <trkpt lat="47.648685" lon="13.440516">
        <time>1970-01-01T00:00:00+00:00</time>
        <ele>1150.0</ele>
      </trkpt>
      <trkpt lat="47.648707" lon="13.440323">
        <time>1970-01-01T00:00:00+00:00</time>
        <ele>1148.0</ele>
      </trkpt>
      <trkpt lat="47.648754" lon="13.440236">
        <time>1970-01-01T00:00:00+00:00</time>
        <ele>1147.0</ele>
      </trkpt>
      <trkpt lat="47.648851" lon="13.44016">
        <time>1970-01-01T00:00:00+00:00</time>
        <ele>1146.0</ele>
      </trkpt>
      <trkpt lat="47.648896" lon="13.440069">
        <time>1970-01-01T00:00:00+00:00</time>
        <ele>1146.0</ele>
      </trkpt>
      <trkpt lat="47.64892" lon="13.439959">
        <time>1970-01-01T00:00:00+00:00</time>
        <ele>1146.0</ele>
      </trkpt>
      <trkpt lat="47.648904" lon="13.439288">
        <time>1970-01-01T00:00:00+00:00</time>
        <ele>1154.0</ele>
      </trkpt>
      <trkpt lat="47.648868" lon="13.43884">
        <time>1970-01-01T00:00:00+00:00</time>
        <ele>1161.0</ele>
      </trkpt>
      <trkpt lat="47.648884" lon="13.438735">
        <time>1970-01-01T00:00:00+00:00</time>
        <ele>1161.0</ele>
      </trkpt>
      <trkpt lat="47.648936" lon="13.438666">
        <time>1970-01-01T00:00:00+00:00</time>
        <ele>1162.0</ele>
      </trkpt>
      <trkpt lat="47.649164" lon="13.438531">
        <time>1970-01-01T00:00:00+00:00</time>
        <ele>1162.0</ele>
      </trkpt>
      <trkpt lat="47.649242" lon="13.43844">
        <time>1970-01-01T00:00:00+00:00</time>
        <ele>1162.0</ele>
      </trkpt>
      <trkpt lat="47.649392" lon="13.438089">
        <time>1970-01-01T00:00:00+00:00</time>
        <ele>1167.0</ele>
      </trkpt>
      <trkpt lat="47.649495" lon="13.437941">
        <time>1970-01-01T00:00:00+00:00</time>
        <ele>1168.0</ele>
      </trkpt>
      <trkpt lat="47.649744" lon="13.437788">
        <time>1970-01-01T00:00:00+00:00</time>
        <ele>1165.0</ele>
      </trkpt>
      <trkpt lat="47.649988" lon="13.437493">
        <time>1970-01-01T00:00:00+00:00</time>
        <ele>1165.0</ele>
      </trkpt>
      <trkpt lat="47.65032" lon="13.437223">
        <time>1970-01-01T00:00:00+00:00</time>
        <ele>1161.0</ele>
      </trkpt>
      <trkpt lat="47.650425" lon="13.437088">
        <time>1970-01-01T00:00:00+00:00</time>
        <ele>1162.0</ele>
      </trkpt>
      <trkpt lat="47.650548" lon="13.43686">
        <time>1970-01-01T00:00:00+00:00</time>
        <ele>1164.0</ele>
      </trkpt>
      <trkpt lat="47.650629" lon="13.436657">
        <time>1970-01-01T00:00:00+00:00</time>
        <ele>1165.0</ele>
      </trkpt>
      <trkpt lat="47.650707" lon="13.436533">
        <time>1970-01-01T00:00:00+00:00</time>
        <ele>1164.0</ele>
      </trkpt>
      <trkpt lat="47.65092" lon="13.436273">
        <time>1970-01-01T00:00:00+00:00</time>
        <ele>1162.0</ele>
      </trkpt>
      <trkpt lat="47.651153" lon="13.436045">
        <time>1970-01-01T00:00:00+00:00</time>
        <ele>1161.0</ele>
      </trkpt>
      <trkpt lat="47.651227" lon="13.435939">
        <time>1970-01-01T00:00:00+00:00</time>
        <ele>1161.0</ele>
      </trkpt>
      <trkpt lat="47.651319" lon="13.435676">
        <time>1970-01-01T00:00:00+00:00</time>
        <ele>1162.0</ele>
      </trkpt>
      <trkpt lat="47.651367" lon="13.435417">
        <time>1970-01-01T00:00:00+00:00</time>
        <ele>1161.0</ele>
      </trkpt>
      <trkpt lat="47.651515" lon="13.434975">
        <time>1970-01-01T00:00:00+00:00</time>
        <ele>1157.0</ele>
      </trkpt>
      <trkpt lat="47.65154" lon="13.434798">
        <time>1970-01-01T00:00:00+00:00</time>
        <ele>1157.0</ele>
      </trkpt>
      <trkpt lat="47.651464" lon="13.434245">
        <time>1970-01-01T00:00:00+00:00</time>
        <ele>1160.0</ele>
      </trkpt>
      <trkpt lat="47.651469" lon="13.434106">
        <time>1970-01-01T00:00:00+00:00</time>
        <ele>1160.0</ele>
      </trkpt>
      <trkpt lat="47.651509" lon="13.433921">
        <time>1970-01-01T00:00:00+00:00</time>
        <ele>1158.0</ele>
      </trkpt>
      <trkpt lat="47.651507" lon="13.433699">
        <time>1970-01-01T00:00:00+00:00</time>
        <ele>1156.0</ele>
      </trkpt>
      <trkpt lat="47.651522" lon="13.433609">
        <time>1970-01-01T00:00:00+00:00</time>
        <ele>1156.0</ele>
      </trkpt>
      <trkpt lat="47.651562" lon="13.433635">
        <time>1970-01-01T00:00:00+00:00</time>
        <ele>1155.0</ele>
      </trkpt>
      <trkpt lat="47.651734" lon="13.433749">
        <time>1970-01-01T00:00:00+00:00</time>
        <ele>1153.0</ele>
      </trkpt>
      <trkpt lat="47.651906" lon="13.433863">
        <time>1970-01-01T00:00:00+00:00</time>
        <ele>1152.0</ele>
      </trkpt>
      <trkpt lat="47.652182" lon="13.434107">
        <time>1970-01-01T00:00:00+00:00</time>
        <ele>1152.0</ele>
      </trkpt>
    </trkseg>
  </trk>
</gpx>
